Tracking 22079 objects as of 5-Dec-2020
HD Live streaming from Space Station
objects crossing your sky now

SECOR 8 (EGRS 8)

Track SECOR 8 (EGRS 8) now!
10-day predictions
SECOR 8 (EGRS 8) is classified as:


NORAD ID: 2520
Int'l Code: 1966-089B
Perigee: 3,685.0 km
Apogee: 3,716.6 km
Inclination: 89.7 °
Period: 167.7 minutes
Semi major axis: 10071 km
RCS: 0.3272 m2 (medium)
Launch date: October 5, 1966
Source: United States (US)
Launch site: AIR FORCE WESTERN TEST RANGE (AFWTR)
aabbcc
Your satellite tracking list
Your tracking list is empty




NASA's NSSDC Master Catalog

Two Line Element Set (TLE):
1 02520U 66089B   20339.13529899  .00000000  00000-0 -11130-2 0  9990
2 02520  89.7283  47.1617 0015716 165.3877 194.7431  8.58900882208424
Source of the keplerian elements: AFSPC